Location: Oak Glen
(34.0495°N, 116.9470°E)
Time: 07:59:20
(UTC-07:00)

OTV 5 (USA 277) - Pass Details

Date: 15 October 2017
Orbit: 404 x 417 km, 43.0° (Epoch: 07 September)

Event Time Altitude Azimuth Distance (km) Brightness Sun altitude
Rises 03:21:17 0° 283° (WNW) 2,347 ? -9.6°
Reaches altitude 10° 03:23:48 10° 302° (WNW) 1,486 ? -10.2°
Maximum altitude 03:26:20 20° 351° (N) 1,040 ? -10.7°
Drops below altitude 10° 03:28:52 10° 40° (NE) 1,487 ? -11.2°
Enters shadow 03:29:00 - 41° (NE) 1,529 ? -11.2°
